"read_dt","SO2 (ppb)","flags","PMT voltage (V)","lamp voltage (V)","lamp intensity (Hz)","internal temp (C)","react chamber temp (C)","sample flow (l/min)","pres (mmHg)","SO2 bkg (ppb)","SO2 coefficient"
2013-10-14 00:00:00,7663E-6,5C000000,-0724,0956,10891,025.5,045.2,0.397,739.0,01.18,0.508
2013-10-14 00:01:00,6978E-5,5C000000,-0724,0956,10929,025.5,045.3,0.397,739.0,01.18,0.508
2013-10-14 00:02:00,1424E-4,5C000000,-0724,0956,10980,025.5,045.3,0.397,739.0,01.18,0.508
2013-10-14 00:03:00,1724E-4,5C000000,-0724,0956,10927,025.5,045.3,0.397,739.0,01.18,0.508
2013-10-14 00:04:00,1070E-4,5C000000,-0724,0956,11009,025.5,045.3,0.398,738.9,01.18,0.508
2013-10-14 00:05:00,1428E-4,5C000000,-0724,0957,10818,025.5,045.3,0.398,738.9,01.18,0.508
2013-10-14 00:06:00,1146E-4,5C000000,-0724,0956,10864,025.5,045.3,0.397,738.9,01.18,0.508
2013-10-14 00:07:00,5093E-5,5C000000,-0724,0956,10895,025.5,045.3,0.398,738.9,01.18,0.508
2013-10-14 00:08:00,9117E-5,5C000000,-0724,0957,11075,025.5,045.2,0.398,738.9,01.18,0.508
2013-10-14 00:09:00,1536E-4,5C000000,-0724,0956,10890,025.6,045.3,0.397,738.9,01.18,0.508
2013-10-14 00:10:00,1485E-4,5C000000,-0724,0957,10946,025.6,045.3,0.397,738.9,01.18,0.508
2013-10-14 00:11:00,1025E-4,5C000000,-0724,0957,10941,025.6,045.3,0.397,738.9,01.18,0.508
2013-10-14 00:12:00,1299E-4,5C000000,-0724,0957,10962,025.6,045.2,0.398,738.9,01.18,0.508
2013-10-14 00:13:00,6562E-5,5C000000,-0724,0957,10898,025.6,045.3,0.398,738.9,01.18,0.508
2013-10-14 00:14:00,1568E-4,5C000000,-0724,0957,10900,025.6,045.3,0.397,738.9,01.18,0.508
2013-10-14 00:15:00,1240E-4,5C000000,-0724,0956,10989,025.6,045.3,0.397,738.9,01.18,0.508
2013-10-14 00:16:00,1430E-4,5C000000,-0724,0956,10872,025.6,045.3,0.397,738.8,01.18,0.508
2013-10-14 00:17:00,8718E-5,5C000000,-0724,0957,10856,025.6,045.2,0.398,738.8,01.18,0.508
2013-10-14 00:18:00,7530E-5,5C000000,-0724,0957,11066,025.6,045.3,0.397,738.8,01.18,0.508
2013-10-14 00:19:00,8480E-5,5C000000,-0724,0957,10860,025.6,045.2,0.397,738.8,01.18,0.508
2013-10-14 00:20:00,1269E-4,5C000000,-0724,0957,10995,025.6,045.3,0.397,738.8,01.18,0.508
2013-10-14 00:21:00,7169E-5,5C000000,-0724,0956,10945,025.6,045.3,0.398,738.8,01.18,0.508
2013-10-14 00:22:00,1350E-4,5C000000,-0724,0957,10848,025.6,045.3,0.398,738.8,01.18,0.508
2013-10-14 00:23:00,8241E-5,5C000000,-0724,0957,10998,025.6,045.3,0.397,738.8,01.18,0.508
2013-10-14 00:24:00,8886E-5,5C000000,-0724,0957,10949,025.6,045.3,0.397,738.8,01.18,0.508
2013-10-14 00:25:00,1177E-4,5C000000,-0724,0956,11134,025.6,045.3,0.397,738.8,01.18,0.508
2013-10-14 00:26:00,2293E-5,5C000000,-0724,0956,10963,025.6,045.2,0.398,738.8,01.18,0.508
2013-10-14 00:27:00,7369E-5,5C000000,-0724,0957,10919,025.7,045.3,0.397,738.8,01.18,0.508
2013-10-14 00:28:00,1174E-4,5C000000,-0724,0956,11072,025.6,045.2,0.397,738.7,01.18,0.508
2013-10-14 00:29:00,7837E-5,5C000000,-0724,0957,10839,025.6,045.3,0.397,738.7,01.18,0.508
2013-10-14 00:30:00,2788E-5,5C000000,-0724,0957,11060,025.6,045.3,0.397,738.6,01.18,0.508
2013-10-14 00:31:00,2111E-4,5C000000,-0724,0957,11030,025.7,045.3,0.398,738.7,01.18,0.508
2013-10-14 00:32:00,1144E-4,5C000000,-0724,0958,10848,025.7,045.3,0.397,738.6,01.18,0.508
2013-10-14 00:33:00,1225E-4,5C000000,-0724,0957,11085,025.7,045.2,0.397,738.6,01.18,0.508
2013-10-14 00:34:00,9859E-5,5C000000,-0724,0958,10842,025.7,045.3,0.397,738.6,01.18,0.508
2013-10-14 00:35:00,1164E-4,5C000000,-0724,0957,10895,025.7,045.3,0.397,738.7,01.18,0.508
2013-10-14 00:36:00,1150E-4,5C000000,-0724,0957,11036,025.7,045.3,0.397,738.7,01.18,0.508
2013-10-14 00:37:00,1109E-4,5C000000,-0724,0957,10832,025.7,045.3,0.397,738.7,01.18,0.508
2013-10-14 00:38:00,1175E-4,5C000000,-0724,0957,11041,025.7,045.3,0.397,738.7,01.18,0.508
2013-10-14 00:39:00,1309E-4,5C000000,-0724,0956,10987,025.7,045.3,0.397,738.7,01.18,0.508
2013-10-14 00:40:00,1014E-4,5C000000,-0724,0957,10907,025.7,045.3,0.397,738.7,01.18,0.508
2013-10-14 00:41:00,7067E-6,5C000000,-0724,0957,11110,025.7,045.3,0.397,738.6,01.18,0.508
2013-10-14 00:42:00,6219E-5,5C000000,-0724,0956,11047,025.7,045.3,0.397,738.7,01.18,0.508
2013-10-14 00:43:00,1331E-4,5C000000,-0724,0957,11052,025.7,045.3,0.397,738.6,01.18,0.508
2013-10-14 00:44:00,1421E-4,5C000000,-0724,0957,11034,025.7,045.3,0.397,738.6,01.18,0.508
2013-10-14 00:45:00,1597E-4,5C000000,-0724,0957,10998,025.7,045.3,0.397,738.6,01.18,0.508
2013-10-14 00:46:00,1034E-4,5C000000,-0724,0958,10921,025.7,045.3,0.397,738.6,01.18,0.508
2013-10-14 00:47:00,1112E-4,5C000000,-0724,0957,11008,025.7,045.3,0.397,738.6,01.18,0.508
2013-10-14 00:48:00,1818E-4,5C000000,-0724,0957,10970,025.7,045.3,0.397,738.7,01.18,0.508
2013-10-14 00:49:00,1063E-4,5C000000,-0724,0957,10978,025.7,045.3,0.397,738.7,01.18,0.508
2013-10-14 00:50:00,8138E-5,5C000000,-0724,0958,10887,025.7,045.3,0.397,738.7,01.18,0.508
2013-10-14 00:51:00,8616E-5,5C000000,-0724,0957,10900,025.7,045.3,0.397,738.7,01.18,0.508
2013-10-14 00:52:00,7520E-5,5C000000,-0724,0957,10996,025.7,045.3,0.397,738.7,01.18,0.508
2013-10-14 00:53:00,1539E-4,5C000000,-0724,0957,10938,025.7,045.3,0.397,738.7,01.18,0.508
2013-10-14 00:54:00,5227E-6,5C000000,-0724,0958,10862,025.8,045.3,0.397,738.7,01.18,0.508
2013-10-14 00:55:00,1285E-4,5C000000,-0724,0957,10881,025.7,045.2,0.397,738.6,01.18,0.508
2013-10-14 00:56:00,1658E-4,5C000000,-0724,0958,10933,025.8,045.3,0.397,738.7,01.18,0.508
2013-10-14 00:57:00,1030E-4,5C000000,-0724,0958,11117,025.8,045.3,0.397,738.6,01.18,0.508
2013-10-14 00:58:00,1291E-4,5C000000,-0724,0956,10955,025.8,045.3,0.397,738.5,01.18,0.508
2013-10-14 00:59:00,2871E-5,5C000000,-0724,0957,10706,025.7,045.3,0.397,738.6,01.18,0.508
2013-10-14 01:00:00,1835E-4,5C000000,-0724,0958,10979,025.7,045.3,0.397,738.6,01.18,0.508
2013-10-14 01:01:00,2204E-4,5C000000,-0724,0957,10943,025.8,045.3,0.397,738.5,01.18,0.508
2013-10-14 01:02:00,1170E-4,5C000000,-0724,0958,11023,025.8,045.3,0.397,738.6,01.18,0.508
2013-10-14 01:03:00,1680E-4,5C000000,-0724,0957,10947,025.8,045.2,0.397,738.5,01.18,0.508
2013-10-14 01:04:00,1058E-4,5C000000,-0724,0957,10901,025.8,045.2,0.397,738.6,01.18,0.508
2013-10-14 01:05:00,1592E-4,5C000000,-0724,0957,10926,025.8,045.3,0.397,738.5,01.18,0.508
2013-10-14 01:06:00,9890E-5,5C000000,-0724,0957,11092,025.8,045.3,0.397,738.5,01.18,0.508
2013-10-14 01:07:00,7542E-5,5C000000,-0724,0957,10733,025.8,045.3,0.397,738.5,01.18,0.508
2013-10-14 01:08:00,1528E-4,5C000000,-0724,0957,11008,025.8,045.2,0.397,738.5,01.18,0.508
2013-10-14 01:09:00,-3568E-5,5C000000,-0724,0957,11019,025.8,045.3,0.397,738.6,01.18,0.508
2013-10-14 01:10:00,1275E-4,5C000000,-0724,0958,10783,025.8,045.3,0.397,738.6,01.18,0.508
2013-10-14 01:11:00,3299E-5,5C000000,-0724,0958,11044,025.8,045.3,0.397,738.6,01.18,0.508
2013-10-14 01:12:00,7766E-5,5C000000,-0724,0957,11021,025.8,045.3,0.397,738.6,01.18,0.508
2013-10-14 01:13:00,7454E-5,5C000000,-0724,0958,10781,025.8,045.3,0.397,738.5,01.18,0.508
2013-10-14 01:14:00,4815E-5,5C000000,-0724,0958,10863,025.8,045.2,0.397,738.5,01.18,0.508
2013-10-14 01:15:00,7881E-5,5C000000,-0724,0958,10876,025.7,045.3,0.397,738.5,01.18,0.508
2013-10-14 01:16:00,1771E-4,5C000000,-0724,0957,10900,025.8,045.3,0.397,738.6,01.18,0.508
2013-10-14 01:17:00,8941E-5,5C000000,-0724,0957,10998,025.8,045.3,0.397,738.6,01.18,0.508
2013-10-14 01:18:00,4380E-5,5C000000,-0724,0957,10889,025.8,045.3,0.397,738.5,01.18,0.508
2013-10-14 01:19:00,1112E-4,5C000000,-0724,0958,10965,025.8,045.3,0.397,738.5,01.18,0.508
2013-10-14 01:20:00,1087E-4,5C000000,-0724,0958,10973,025.8,045.3,0.397,738.5,01.18,0.508
2013-10-14 01:21:00,5869E-5,5C000000,-0724,0958,10999,025.8,045.3,0.397,738.5,01.18,0.508
2013-10-14 01:22:00,1727E-4,5C000000,-0724,0957,11057,025.8,045.3,0.397,738.4,01.18,0.508
2013-10-14 01:23:00,5738E-5,5C000000,-0724,0957,11007,025.8,045.3,0.397,738.4,01.18,0.508
2013-10-14 01:24:00,-1777E-5,5C000000,-0724,0957,10976,025.8,045.3,0.397,738.4,01.18,0.508
2013-10-14 01:25:00,8412E-5,5C000000,-0724,0958,10939,025.8,045.3,0.397,738.4,01.18,0.508
2013-10-14 01:26:00,7232E-5,5C000000,-0724,0958,11081,025.8,045.3,0.397,738.4,01.18,0.508
2013-10-14 01:27:00,2212E-4,5C000000,-0724,0958,11002,025.8,045.3,0.397,738.3,01.18,0.508
2013-10-14 01:28:00,1638E-4,5C000000,-0724,0957,10962,025.8,045.3,0.397,738.4,01.18,0.508
2013-10-14 01:29:00,9512E-5,5C000000,-0724,0958,11090,025.8,045.3,0.397,738.4,01.18,0.508
2013-10-14 01:30:00,1091E-4,5C000000,-0724,0958,10934,025.8,045.3,0.397,738.4,01.18,0.508
2013-10-14 01:31:00,1203E-4,5C000000,-0724,0957,10965,025.8,045.3,0.397,738.4,01.18,0.508
2013-10-14 01:32:00,9099E-5,5C000000,-0724,0957,10964,025.8,045.3,0.397,738.3,01.18,0.508
2013-10-14 01:33:00,4981E-5,5C000000,-0724,0958,10892,025.8,045.3,0.397,738.4,01.18,0.508
2013-10-14 01:34:00,1803E-4,5C000000,-0724,0958,11002,025.8,045.3,0.397,738.4,01.18,0.508
2013-10-14 01:35:00,1171E-4,5C000000,-0724,0958,10746,025.8,045.3,0.397,738.4,01.18,0.508
2013-10-14 01:36:00,9584E-5,5C000000,-0724,0958,11067,025.8,045.3,0.397,738.4,01.18,0.508
2013-10-14 01:37:00,8190E-5,5C000000,-0724,0957,10961,025.8,045.3,0.397,738.2,01.18,0.508
2013-10-14 01:38:00,1627E-4,5C000000,-0724,0957,11069,025.8,045.3,0.397,738.2,01.18,0.508
2013-10-14 01:39:00,1365E-4,5C000000,-0724,0958,11033,025.8,045.3,0.396,738.3,01.18,0.508
2013-10-14 01:40:00,9062E-5,5C000000,-0724,0957,10893,025.8,045.2,0.397,738.3,01.18,0.508
2013-10-14 01:41:00,1253E-4,5C000000,-0724,0958,10929,025.8,045.3,0.397,738.3,01.18,0.508
2013-10-14 01:42:00,1317E-4,5C000000,-0724,0958,10879,025.8,045.3,0.397,738.4,01.18,0.508
2013-10-14 01:43:00,9259E-5,5C000000,-0724,0957,11072,025.8,045.3,0.397,738.4,01.18,0.508
2013-10-14 01:44:00,9400E-5,5C000000,-0724,0958,10942,025.8,045.3,0.397,738.5,01.18,0.508
2013-10-14 01:45:00,8196E-5,5C000000,-0724,0958,10840,025.7,045.3,0.397,738.5,01.18,0.508
2013-10-14 01:46:00,9542E-5,5C000000,-0724,0958,11016,025.8,045.3,0.397,738.5,01.18,0.508
2013-10-14 01:47:00,1663E-4,5C000000,-0724,0958,11015,025.8,045.3,0.397,738.5,01.18,0.508
2013-10-14 01:48:00,1109E-4,5C000000,-0724,0957,10974,025.7,045.3,0.397,738.5,01.18,0.508
2013-10-14 01:49:00,1441E-4,5C000000,-0724,0957,10966,025.7,045.3,0.397,738.5,01.18,0.508
2013-10-14 01:50:00,2162E-4,5C000000,-0724,0958,10803,025.8,045.3,0.397,738.5,01.18,0.508
2013-10-14 01:51:00,3455E-5,5C000000,-0724,0957,11008,025.8,045.2,0.397,738.5,01.18,0.508
2013-10-14 01:52:00,8137E-5,5C000000,-0724,0957,11046,025.8,045.3,0.397,738.5,01.18,0.508
2013-10-14 01:53:00,9481E-5,5C000000,-0724,0958,10869,025.7,045.2,0.397,738.5,01.18,0.508
2013-10-14 01:54:00,5774E-5,5C000000,-0724,0957,10789,025.8,045.3,0.397,738.4,01.18,0.508
2013-10-14 01:55:00,1126E-4,5C000000,-0724,0957,10963,025.7,045.3,0.397,738.4,01.18,0.508
2013-10-14 01:56:00,8951E-5,5C000000,-0724,0958,10939,025.7,045.3,0.397,738.4,01.18,0.508
2013-10-14 01:57:00,1479E-4,5C000000,-0724,0957,11003,025.7,045.3,0.396,738.4,01.18,0.508
2013-10-14 01:58:00,2827E-4,5C000000,-0724,0958,10953,025.8,045.3,0.397,738.3,01.18,0.508
2013-10-14 01:59:00,9734E-5,5C000000,-0724,0956,10989,025.7,045.3,0.397,738.3,01.18,0.508
2013-10-14 02:00:00,1875E-4,5C000000,-0724,0957,11031,025.8,045.3,0.397,738.3,01.18,0.508
2013-10-14 02:01:00,2066E-4,5C000000,-0724,0957,10912,025.7,045.3,0.397,738.3,01.18,0.508
2013-10-14 02:02:00,2527E-4,5C000000,-0724,0957,10974,025.7,045.3,0.397,738.3,01.18,0.508
2013-10-14 02:03:00,1646E-4,5C000000,-0724,0958,10841,025.7,045.2,0.397,738.3,01.18,0.508
2013-10-14 02:04:00,2318E-4,5C000000,-0724,0957,10941,025.7,045.3,0.397,738.2,01.18,0.508
2013-10-14 02:05:00,2435E-4,5C000000,-0724,0957,10894,025.8,045.3,0.397,738.3,01.18,0.508
2013-10-14 02:06:00,1757E-4,5C000000,-0724,0957,10961,025.7,045.3,0.397,738.3,01.18,0.508
2013-10-14 02:07:00,2002E-4,5C000000,-0724,0957,10842,025.7,045.3,0.397,738.2,01.18,0.508
2013-10-14 02:08:00,9659E-5,5C000000,-0724,0957,10868,025.8,045.3,0.397,738.2,01.18,0.508
2013-10-14 02:09:00,2223E-4,5C000000,-0724,0957,10898,025.7,045.3,0.397,738.2,01.18,0.508
2013-10-14 02:10:00,1997E-4,5C000000,-0724,0958,10920,025.7,045.3,0.397,738.2,01.18,0.508
2013-10-14 02:11:00,2218E-4,5C000000,-0724,0958,10974,025.8,045.3,0.397,738.1,01.18,0.508
2013-10-14 02:12:00,2009E-4,5C000000,-0724,0957,11061,025.8,045.3,0.397,738.1,01.18,0.508
2013-10-14 02:13:00,2266E-4,5C000000,-0724,0957,11089,025.7,045.3,0.396,738.1,01.18,0.508
2013-10-14 02:14:00,2021E-4,5C000000,-0724,0957,10869,025.7,045.3,0.397,738.1,01.18,0.508
2013-10-14 02:15:00,1965E-4,5C000000,-0724,0958,10904,025.7,045.3,0.397,738.0,01.18,0.508
2013-10-14 02:16:00,1900E-4,5C000000,-0724,0957,11004,025.7,045.3,0.397,737.9,01.18,0.508
2013-10-14 02:17:00,1584E-4,5C000000,-0724,0957,10982,025.7,045.3,0.397,737.9,01.18,0.508
2013-10-14 02:18:00,1617E-4,5C000000,-0724,0957,11012,025.8,045.3,0.396,737.8,01.18,0.508
2013-10-14 02:19:00,1959E-4,5C000000,-0724,0957,10952,025.7,045.2,0.396,737.8,01.18,0.508
2013-10-14 02:20:00,2129E-4,5C000000,-0724,0957,10994,025.7,045.3,0.397,737.8,01.18,0.508
2013-10-14 02:21:00,1981E-4,5C000000,-0724,0957,11019,025.7,045.3,0.397,737.8,01.18,0.508
2013-10-14 02:22:00,2459E-4,5C000000,-0724,0957,10850,025.7,045.3,0.397,737.9,01.18,0.508
2013-10-14 02:23:00,1435E-4,5C000000,-0724,0957,10841,025.7,045.3,0.397,737.8,01.18,0.508
2013-10-14 02:24:00,1644E-4,5C000000,-0724,0957,10938,025.7,045.3,0.397,737.8,01.18,0.508
2013-10-14 02:25:00,2151E-4,5C000000,-0724,0957,11001,025.7,045.3,0.396,737.8,01.18,0.508
2013-10-14 02:26:00,1916E-4,5C000000,-0724,0957,10981,025.7,045.3,0.397,738.0,01.18,0.508
2013-10-14 02:27:00,1576E-4,5C000000,-0724,0958,10988,025.7,045.2,0.397,738.0,01.18,0.508
2013-10-14 02:28:00,1860E-4,5C000000,-0724,0958,10963,025.7,045.3,0.397,738.1,01.18,0.508
2013-10-14 02:29:00,1863E-4,5C000000,-0724,0957,11046,025.7,045.3,0.397,738.0,01.18,0.508
2013-10-14 02:30:00,1545E-4,5C000000,-0724,0957,10905,025.7,045.3,0.396,738.0,01.18,0.508
2013-10-14 02:31:00,1744E-4,5C000000,-0724,0958,10957,025.7,045.3,0.397,738.2,01.18,0.508
2013-10-14 02:32:00,3018E-4,5C000000,-0724,0958,11010,025.7,045.2,0.397,738.2,01.18,0.508
2013-10-14 02:33:00,2313E-4,5C000000,-0724,0958,10853,025.7,045.3,0.397,738.2,01.18,0.508
2013-10-14 02:34:00,1905E-4,5C000000,-0724,0958,10981,025.7,045.3,0.397,738.2,01.18,0.508
2013-10-14 02:35:00,2013E-4,5C000000,-0724,0959,10928,025.7,045.3,0.397,738.3,01.18,0.508
2013-10-14 02:36:00,9507E-5,5C000000,-0724,0958,10964,025.7,045.3,0.397,738.3,01.18,0.508
2013-10-14 02:37:00,1422E-4,5C000000,-0724,0958,10969,025.7,045.2,0.397,738.3,01.18,0.508
2013-10-14 02:38:00,1202E-4,5C000000,-0724,0957,10966,025.7,045.3,0.397,738.3,01.18,0.508
2013-10-14 02:39:00,1796E-4,5C000000,-0724,0958,10782,025.7,045.3,0.396,738.2,01.18,0.508
2013-10-14 02:40:00,1046E-4,5C000000,-0724,0957,11053,025.7,045.3,0.397,738.3,01.18,0.508
2013-10-14 02:41:00,1719E-4,5C000000,-0724,0957,10929,025.7,045.3,0.397,738.3,01.18,0.508
2013-10-14 02:42:00,1059E-4,5C000000,-0724,0957,10898,025.7,045.3,0.397,738.3,01.18,0.508
2013-10-14 02:43:00,1361E-4,5C000000,-0724,0957,11020,025.7,045.3,0.397,738.3,01.18,0.508
2013-10-14 02:44:00,1876E-4,5C000000,-0724,0957,10962,025.7,045.2,0.397,738.3,01.18,0.508
2013-10-14 02:45:00,7909E-5,5C000000,-0724,0958,10742,025.7,045.3,0.397,738.3,01.18,0.508
2013-10-14 02:46:00,1241E-4,5C000000,-0724,0957,10990,025.7,045.3,0.397,738.3,01.18,0.508
2013-10-14 02:47:00,1436E-4,5C000000,-0724,0958,10834,025.7,045.3,0.397,738.3,01.18,0.508
2013-10-14 02:48:00,1184E-4,5C000000,-0724,0958,11070,025.7,045.3,0.397,738.3,01.18,0.508
2013-10-14 02:49:00,1049E-4,5C000000,-0724,0957,11091,025.7,045.3,0.397,738.3,01.18,0.508
2013-10-14 02:50:00,1257E-4,5C000000,-0724,0958,11049,025.7,045.3,0.397,738.2,01.18,0.508
2013-10-14 02:51:00,9599E-5,5C000000,-0724,0957,10871,025.7,045.3,0.397,738.2,01.18,0.508
2013-10-14 02:52:00,1671E-4,5C000000,-0724,0957,10920,025.7,045.3,0.397,738.2,01.18,0.508
2013-10-14 02:53:00,2254E-4,5C000000,-0724,0957,10994,025.7,045.3,0.397,738.1,01.18,0.508
2013-10-14 02:54:00,1659E-4,5C000000,-0724,0958,10845,025.7,045.3,0.397,738.2,01.18,0.508
2013-10-14 02:55:00,1370E-4,5C000000,-0724,0957,10850,025.7,045.3,0.397,738.1,01.18,0.508
2013-10-14 02:56:00,1318E-4,5C000000,-0724,0957,10927,025.7,045.2,0.397,738.1,01.18,0.508
2013-10-14 02:57:00,1721E-4,5C000000,-0724,0957,10949,025.7,045.3,0.397,738.0,01.18,0.508
2013-10-14 02:58:00,1486E-4,5C000000,-0724,0957,11014,025.7,045.3,0.397,738.0,01.18,0.508
2013-10-14 02:59:00,1523E-4,5C000000,-0724,0957,10879,025.7,045.3,0.397,738.0,01.18,0.508
2013-10-14 03:00:00,1437E-4,5C000000,-0724,0957,10950,025.7,045.3,0.397,738.0,01.18,0.508
2013-10-14 03:01:00,2338E-4,5C000000,-0724,0958,11040,025.7,045.3,0.396,738.0,01.18,0.508
2013-10-14 03:02:00,2846E-4,5C000000,-0724,0957,10923,025.7,045.3,0.397,738.0,01.18,0.508
2013-10-14 03:03:00,1790E-4,5C000000,-0724,0957,11020,025.7,045.3,0.397,737.9,01.18,0.508
2013-10-14 03:04:00,1641E-4,5C000000,-0724,0957,10999,025.7,045.3,0.397,737.9,01.18,0.508
2013-10-14 03:05:00,1952E-4,5C000000,-0724,0957,10588,025.7,045.3,0.397,737.9,01.18,0.508
2013-10-14 03:06:00,1414E-4,5C000000,-0724,0957,11009,025.7,045.3,0.397,737.8,01.18,0.508
2013-10-14 03:07:00,6486E-5,5C000000,-0724,0958,10855,025.7,045.3,0.396,737.8,01.18,0.508
2013-10-14 03:08:00,2236E-4,5C000000,-0724,0957,11037,025.7,045.3,0.397,737.8,01.18,0.508
2013-10-14 03:09:00,1845E-4,5C000000,-0724,0957,10849,025.8,045.2,0.397,737.9,01.18,0.508
2013-10-14 03:10:00,1809E-4,5C000000,-0724,0958,10980,025.7,045.2,0.397,737.8,01.18,0.508
2013-10-14 03:11:00,1654E-4,5C000000,-0724,0957,10852,025.7,045.3,0.397,737.9,01.18,0.508
2013-10-14 03:12:00,1634E-4,5C000000,-0724,0957,11028,025.7,045.3,0.396,737.9,01.18,0.508
2013-10-14 03:13:00,2519E-4,5C000000,-0724,0957,10938,025.7,045.3,0.397,737.9,01.18,0.508
2013-10-14 03:14:00,1773E-4,5C000000,-0724,0957,10881,025.7,045.2,0.397,737.9,01.18,0.508
2013-10-14 03:15:00,1603E-4,5C000000,-0724,0958,11013,025.7,045.3,0.397,737.9,01.18,0.508
2013-10-14 03:16:00,2146E-4,5C000000,-0724,0957,11019,025.7,045.3,0.397,738.0,01.18,0.508
2013-10-14 03:17:00,2925E-4,5C000000,-0724,0957,10910,025.7,045.3,0.397,738.0,01.18,0.508
2013-10-14 03:18:00,1608E-4,5C000000,-0724,0957,10882,025.7,045.3,0.396,738.0,01.18,0.508
2013-10-14 03:19:00,2526E-4,5C000000,-0724,0958,10897,025.7,045.3,0.397,738.0,01.18,0.508
2013-10-14 03:20:00,2491E-4,5C000000,-0724,0957,10930,025.7,045.3,0.397,737.9,01.18,0.508
2013-10-14 03:21:00,1873E-4,5C000000,-0724,0957,10879,025.7,045.3,0.397,738.0,01.18,0.508
2013-10-14 03:22:00,1418E-4,5C000000,-0724,0957,11077,025.7,045.3,0.397,738.0,01.18,0.508
2013-10-14 03:23:00,2413E-4,5C000000,-0724,0957,10970,025.7,045.3,0.396,738.0,01.18,0.508
2013-10-14 03:24:00,2920E-4,5C000000,-0724,0957,10947,025.7,045.3,0.396,738.0,01.18,0.508
2013-10-14 03:25:00,1280E-4,5C000000,-0724,0958,10895,025.7,045.3,0.397,738.0,01.18,0.508
2013-10-14 03:26:00,1964E-4,5C000000,-0724,0957,10667,025.7,045.3,0.397,738.0,01.18,0.508
2013-10-14 03:27:00,2323E-4,5C000000,-0724,0957,10870,025.7,045.3,0.397,738.0,01.18,0.508
2013-10-14 03:28:00,1837E-4,5C000000,-0724,0958,11101,025.7,045.3,0.397,738.0,01.18,0.508
2013-10-14 03:29:00,3045E-4,5C000000,-0724,0958,10995,025.7,045.2,0.397,738.0,01.18,0.508
2013-10-14 03:30:00,2531E-4,5C000000,-0724,0958,11016,025.7,045.3,0.397,737.9,01.18,0.508
2013-10-14 03:31:00,1780E-4,5C000000,-0724,0957,10925,025.8,045.3,0.397,737.9,01.18,0.508
2013-10-14 03:32:00,1712E-4,5C000000,-0724,0957,10956,025.7,045.3,0.397,737.9,01.18,0.508
2013-10-14 03:33:00,2319E-4,5C000000,-0724,0957,10923,025.7,045.3,0.396,737.9,01.18,0.508
2013-10-14 03:34:00,2128E-4,5C000000,-0724,0958,10992,025.7,045.3,0.396,737.8,01.18,0.508
2013-10-14 03:35:00,1245E-4,5C000000,-0724,0958,10922,025.7,045.3,0.397,737.8,01.18,0.508
2013-10-14 03:36:00,1385E-4,5C000000,-0724,0957,10924,025.8,045.3,0.397,737.8,01.18,0.508
2013-10-14 03:37:00,2138E-4,5C000000,-0724,0957,10997,025.8,045.3,0.397,737.7,01.18,0.508
2013-10-14 03:38:00,2973E-4,5C000000,-0724,0957,10886,025.8,045.3,0.397,737.7,01.18,0.508
2013-10-14 03:39:00,2631E-4,5C000000,-0724,0957,10875,025.8,045.3,0.397,737.7,01.18,0.508
2013-10-14 03:40:00,1648E-4,5C000000,-0724,0957,10934,025.8,045.3,0.396,737.7,01.18,0.508
2013-10-14 03:41:00,1754E-4,5C000000,-0724,0956,10973,025.8,045.3,0.396,737.7,01.18,0.508
2013-10-14 03:42:00,2702E-4,5C000000,-0724,0957,11076,025.8,045.3,0.396,737.6,01.18,0.508
2013-10-14 03:43:00,2828E-4,5C000000,-0724,0957,10986,025.8,045.3,0.396,737.5,01.18,0.508
2013-10-14 03:44:00,2197E-4,5C000000,-0724,0957,10925,025.8,045.3,0.397,737.5,01.18,0.508
2013-10-14 03:45:00,1829E-4,5C000000,-0724,0958,11018,025.8,045.3,0.397,737.5,01.18,0.508
2013-10-14 03:46:00,2628E-4,5C000000,-0724,0958,10980,025.8,045.3,0.397,737.5,01.18,0.508
2013-10-14 03:47:00,2222E-4,5C000000,-0724,0957,11055,025.8,045.2,0.397,737.5,01.18,0.508
2013-10-14 03:48:00,1871E-4,5C000000,-0724,0957,11022,025.8,045.3,0.397,737.5,01.18,0.508
2013-10-14 03:49:00,1525E-4,5C000000,-0724,0957,11060,025.8,045.3,0.396,737.5,01.18,0.508
2013-10-14 03:50:00,2072E-4,5C000000,-0724,0957,11049,025.8,045.3,0.396,737.5,01.18,0.508
2013-10-14 03:51:00,2385E-4,5C000000,-0724,0957,10926,025.8,045.2,0.396,737.4,01.18,0.508
2013-10-14 03:52:00,1589E-4,5C000000,-0724,0957,10902,025.8,045.3,0.396,737.4,01.18,0.508
2013-10-14 03:53:00,9108E-5,5C000000,-0724,0957,11021,025.8,045.3,0.396,737.4,01.18,0.508
2013-10-14 03:54:00,2837E-4,5C000000,-0724,0957,11042,025.8,045.3,0.396,737.4,01.18,0.508
2013-10-14 03:55:00,1197E-4,5C000000,-0724,0957,11060,025.8,045.3,0.397,737.4,01.18,0.508
2013-10-14 03:56:00,2694E-4,5C000000,-0724,0957,10950,025.8,045.3,0.397,737.4,01.18,0.508
2013-10-14 03:57:00,2138E-4,5C000000,-0724,0957,10823,025.8,045.3,0.397,737.4,01.18,0.508
2013-10-14 03:58:00,4302E-5,5C000000,-0724,0957,11018,025.8,045.3,0.397,737.4,01.18,0.508
2013-10-14 03:59:00,1683E-4,5C000000,-0724,0958,11027,025.8,045.2,0.396,737.4,01.18,0.508
2013-10-14 04:00:00,1994E-4,5C000000,-0724,0958,11068,025.8,045.2,0.396,737.4,01.18,0.508
2013-10-14 04:01:00,2239E-4,5C000000,-0724,0957,10860,025.8,045.3,0.396,737.5,01.18,0.508
2013-10-14 04:02:00,1941E-4,5C000000,-0724,0957,10930,025.8,045.3,0.396,737.4,01.18,0.508
2013-10-14 04:03:00,2036E-4,5C000000,-0724,0958,11006,025.8,045.3,0.396,737.4,01.18,0.508
2013-10-14 04:04:00,2726E-4,5C000000,-0724,0957,11026,025.8,045.3,0.396,737.4,01.18,0.508
2013-10-14 04:05:00,2493E-4,5C000000,-0724,0958,10995,025.8,045.3,0.397,737.4,01.18,0.508
2013-10-14 04:06:00,1287E-4,5C000000,-0724,0957,11087,025.8,045.3,0.397,737.4,01.18,0.508
2013-10-14 04:07:00,1248E-4,5C000000,-0724,0957,10964,025.8,045.3,0.397,737.4,01.18,0.508
2013-10-14 04:08:00,2136E-4,5C000000,-0724,0958,10905,025.8,045.3,0.397,737.4,01.18,0.508
2013-10-14 04:09:00,1857E-4,5C000000,-0724,0958,10947,025.8,045.3,0.396,737.4,01.18,0.508
2013-10-14 04:10:00,1935E-4,5C000000,-0724,0958,11031,025.8,045.3,0.396,737.3,01.18,0.508
2013-10-14 04:11:00,1695E-4,5C000000,-0724,0957,10920,025.8,045.3,0.396,737.3,01.18,0.508
2013-10-14 04:12:00,2354E-4,5C000000,-0724,0957,11061,025.8,045.3,0.396,737.3,01.18,0.508
2013-10-14 04:13:00,1602E-4,5C000000,-0724,0959,10887,025.8,045.3,0.396,737.2,01.18,0.508
2013-10-14 04:14:00,2490E-4,5C000000,-0724,0958,10978,025.8,045.3,0.396,737.3,01.18,0.508
2013-10-14 04:15:00,1645E-4,5C000000,-0724,0957,10920,025.8,045.3,0.396,737.3,01.18,0.508
2013-10-14 04:16:00,1568E-4,5C000000,-0724,0957,11030,025.8,045.3,0.397,737.3,01.18,0.508
2013-10-14 04:17:00,2202E-4,5C000000,-0724,0958,10917,025.8,045.3,0.397,737.3,01.18,0.508
2013-10-14 04:18:00,1976E-4,5C000000,-0724,0958,10919,025.8,045.3,0.396,737.3,01.18,0.508
2013-10-14 04:19:00,2203E-4,5C000000,-0724,0958,11013,025.8,045.3,0.396,737.3,01.18,0.508
2013-10-14 04:20:00,1913E-4,5C000000,-0724,0957,10938,025.9,045.3,0.396,737.3,01.18,0.508